Flag for Norway Weather past 2 weeks in Indre Arna, Norway

Now
40 °F

Quite cool.


Feels Like: 40 °F
Forecast: 40 / 46 °F
Wind: 1 mph from Southeast

Location: Bergen / Florida

Current Time: Apr 22, 2015 at 2:12:27 AM

Latest Report: Apr 22, 2015 at 1:00 AM


Visibility: N/A

Pressure: 30.45 "Hg

Humidity: 82%

Dew point: 35 °F

Location of Indre ArnaLocation

Historic Weather in Indre Arna — Graph

°F

Indre Arna temperature yesterday

Maximum temperature yesterday: 51 °F (at 6:00 PM)
Minimum temperature yesterday: 39 °F (at 4:00 AM)
Average temperature yesterday: 44 °F

Past Weeks' High & Low Weather Summary

 TemperatureHumidityPressure
High65 °F (Apr 20, 2:00 PM)89% (Apr 21, 4:00 AM)30.51 "Hg (Apr 21, 4:00 AM)
Low35 °F (Apr 13, 6:00 AM)26% (Apr 20, 2:00 PM)29.58 "Hg (Apr 11, 3:00 PM)
Average45 °F70%30.12 "Hg
* Reported Midnight between Apr 6 and Apr 7 — Midnight between Apr 21 and Apr 22, Indre Arna, Weather by CustomWeather, © 2015

Note: Actual official high and low records may vary slightly from our data, if they occured in-between our weather recording intervals... More about our weather records

Advertising

Indre Arna weather history for previous 24 hours

 ConditionsComfort  
Time TempWeatherWind HumidityBarometerVisibility
12:00 AM
Wed, Apr 22
43 °FQuite cool.2 mph81%30.46 "HgN/A
11:00 PM
Tue, Apr 21
44 °FPassing clouds.1 mph80%30.46 "Hg19 mi
10:00 PM45 °FCool.3 mph76%30.45 "HgN/A
9:00 PM47 °FCool.3 mph68%30.44 "HgN/A
8:00 PM47 °FPartly sunny.3 mph67%30.43 "Hg19 mi
7:00 PM48 °FCool.3 mph68%30.43 "HgN/A
6:00 PM51 °FCool.3 mph61%30.42 "HgN/A
5:00 PM48 °FSprinkles. Partly sunny.3 mph67%30.43 "Hg19 mi
4:00 PM47 °FCool.5 mph63%30.44 "HgN/A
3:00 PM49 °FCool.2 mph67%30.43 "HgN/A
2:00 PM47 °FOvercast.3 mph68%30.43 "Hg25 mi
1:00 PM47 °FCool.1 mph71%30.42 "HgN/A
12:00 PM44 °FQuite cool.1 mph78%30.43 "HgN/A
11:00 AM43 °FDrizzle. Low clouds.1 mph84%30.42 "Hg6 mi
10:00 AM42 °FQuite cool.1 mph87%30.42 "HgN/A
9:00 AM41 °FQuite cool.2 mph88%30.42 "HgN/A
8:00 AM40 °FQuite cool.2 mph89%30.42 "HgN/A
6:00 AM40 °FChilly.3 mph89%30.39 "HgN/A
4:00 AM39 °FChilly.3 mph89%30.40 "HgN/A
3:00 AM39 °FChilly.5 mph88%30.42 "HgN/A
2:00 AM40 °FQuite cool.3 mph87%30.42 "HgN/A
Weather by CustomWeather, © 2015

See weather overviewHow to use our weather pages